sat.trackr.live / text

‹ back to catalog

STARLINK-6099

NORAD 57108 · 2023-090H

PAYLOAD ACTIVE UNKNOWN

§ Identity

Operator
Country
US
Launch date
2023-06-23
Launch site
AFETR
Launch vehicle
Mass (kg)
RCS (m²)

Purposes: comms

External: N2YO · Heavens-Above · Gunter

§ Orbital elements

Epoch: 2026-09-20T11:36:37.301184Z

Period
94.27 min
Inclination
43.0008°
Eccentricity
0.0000942
Mean motion
15.27577438 rev/d
Perigee alt
482.4 km
Apogee alt
483.7 km
Semi-major
6,861.2 km
B*
7.8690e-6
RAAN
261.4621°
Arg perigee
266.4115°
Mean anomaly
93.6629°
Rev number
18,012

§ Raw data

STARLINK-60991 57108U 23090H   26263.48376506 -.00000045  00000+0  78690-5 0  99972 57108  43.0008 261.4621 0000942 266.4115  93.6629 15.27577438180126

JSON: /api/v1/satellites/57108 · /tle

For live sub-satellite position, see the globe view (requires WebGL).

§ Visibility from observer

Set your observer location to see the next 7 days of passes ≥ 10°. The values pass through the URL so the page stays shareable.

No JS? Fill the form by hand. The geolocation button needs JavaScript.